TimeCDT,TemperatureF,Dew PointF,Humidity,Sea Level PressureIn,VisibilityMPH,Wind Direction,Wind SpeedMPH,Gust SpeedMPH,PrecipitationIn,Events,Conditions,WindDirDegrees,DateUTC
12:13 AM,50.0,41.0,71,30.16,10.0,Calm,Calm,-,N/A,,Mostly Cloudy,0,2011-10-09 05:13:00
12:33 AM,50.0,42.8,76,30.15,10.0,Calm,Calm,-,N/A,,Mostly Cloudy,0,2011-10-09 05:33:00
12:53 AM,50.0,42.8,76,30.17,10.0,Calm,Calm,-,N/A,,Scattered Clouds,0,2011-10-09 05:53:00
1:12 AM,50.0,42.8,76,30.17,10.0,Calm,Calm,-,N/A,,Scattered Clouds,0,2011-10-09 06:12:00
1:33 AM,48.2,41.0,76,30.18,10.0,Calm,Calm,-,N/A,,Clear,0,2011-10-09 06:33:00
1:53 AM,46.4,39.2,76,30.18,10.0,Calm,Calm,-,N/A,,Clear,0,2011-10-09 06:53:00
2:13 AM,48.2,42.8,82,30.19,10.0,Calm,Calm,-,N/A,,Clear,0,2011-10-09 07:13:00
2:33 AM,46.4,42.8,87,30.19,10.0,Calm,Calm,-,N/A,,Clear,0,2011-10-09 07:33:00
2:53 AM,46.4,37.4,71,30.19,10.0,Calm,Calm,-,N/A,,Clear,0,2011-10-09 07:53:00
3:13 AM,46.4,39.2,76,30.20,10.0,Calm,Calm,-,N/A,,Clear,0,2011-10-09 08:13:00
3:33 AM,44.6,37.4,76,30.21,10.0,Calm,Calm,-,N/A,,Clear,0,2011-10-09 08:33:00
4:13 AM,42.8,39.2,87,30.20,10.0,Calm,Calm,-,N/A,,Clear,0,2011-10-09 09:13:00
4:33 AM,42.8,37.4,81,30.22,10.0,Calm,Calm,-,N/A,,Clear,0,2011-10-09 09:33:00
4:53 AM,42.8,39.2,87,30.21,10.0,Calm,Calm,-,N/A,,Clear,0,2011-10-09 09:53:00
5:13 AM,44.6,37.4,76,30.21,10.0,Calm,Calm,-,N/A,,Clear,0,2011-10-09 10:13:00
5:33 AM,44.6,37.4,76,30.22,10.0,Calm,Calm,-,N/A,,Clear,0,2011-10-09 10:33:00
6:13 AM,44.6,39.2,81,30.24,10.0,Calm,Calm,-,N/A,,Clear,0,2011-10-09 11:13:00
6:33 AM,44.6,37.4,76,30.24,10.0,Calm,Calm,-,N/A,,Clear,0,2011-10-09 11:33:00
6:53 AM,44.6,37.4,76,30.23,10.0,ENE,4.6,-,N/A,,Clear,60,2011-10-09 11:53:00
7:13 AM,46.4,37.4,71,30.24,10.0,ENE,4.6,-,N/A,,Clear,60,2011-10-09 12:13:00
7:53 AM,46.4,39.2,76,30.25,10.0,Calm,Calm,-,N/A,,Clear,0,2011-10-09 12:53:00
8:13 AM,46.4,39.2,76,30.26,10.0,Calm,Calm,-,N/A,,Clear,0,2011-10-09 13:13:00
8:33 AM,46.4,41.0,81,30.26,10.0,Calm,Calm,-,N/A,,Clear,0,2011-10-09 13:33:00
8:53 AM,48.2,42.8,82,30.27,10.0,Calm,Calm,-,N/A,,Clear,0,2011-10-09 13:53:00
9:13 AM,50.0,44.6,82,30.27,10.0,Calm,Calm,-,N/A,,Clear,0,2011-10-09 14:13:00
9:33 AM,51.8,46.4,82,30.27,10.0,NE,5.8,-,N/A,,Clear,50,2011-10-09 14:33:00
9:53 AM,51.8,46.4,82,30.27,10.0,ENE,8.1,-,N/A,,Scattered Clouds,60,2011-10-09 14:53:00
10:13 AM,53.6,46.4,77,30.27,10.0,ENE,3.5,-,N/A,,Mostly Cloudy,60,2011-10-09 15:13:00
10:33 AM,53.6,46.4,77,30.26,10.0,ENE,9.2,-,N/A,,Scattered Clouds,70,2011-10-09 15:33:00
10:53 AM,53.6,46.4,77,30.25,10.0,ENE,9.2,-,N/A,,Mostly Cloudy,70,2011-10-09 15:53:00
11:13 AM,53.6,46.4,77,30.25,10.0,Calm,Calm,-,N/A,,Overcast,0,2011-10-09 16:13:00
11:33 AM,55.4,46.4,72,30.24,10.0,ENE,4.6,-,N/A,,Mostly Cloudy,70,2011-10-09 16:33:00
11:53 AM,55.4,46.4,72,30.24,10.0,ENE,8.1,-,N/A,,Scattered Clouds,70,2011-10-09 16:53:00
12:13 PM,55.4,46.4,72,30.23,10.0,Calm,Calm,-,N/A,Rain,Light Rain,0,2011-10-09 17:13:00
12:33 PM,55.4,44.6,67,30.23,10.0,ENE,5.8,-,N/A,Rain,Light Rain,70,2011-10-09 17:33:00
12:53 PM,55.4,44.6,67,30.24,7.0,ENE,3.5,-,N/A,Rain,Light Rain,70,2011-10-09 17:53:00
1:13 PM,53.6,46.4,77,30.22,10.0,Calm,Calm,-,0.01,Rain,Light Rain,0,2011-10-09 18:13:00
1:33 PM,55.4,48.2,77,30.21,10.0,Calm,Calm,-,0.01,Rain,Light Rain,0,2011-10-09 18:33:00
1:53 PM,55.4,50.0,82,30.19,10.0,ENE,6.9,-,0.01,Rain,Light Rain,60,2011-10-09 18:53:00
1:55 PM,55.4,50.0,82,30.18,10.0,Calm,Calm,-,0.01,Rain,Light Rain,0,2011-10-09 18:55:00
2:13 PM,53.6,50.0,88,30.17,10.0,ENE,6.9,-,N/A,,Light Drizzle,60,2011-10-09 19:13:00
2:33 PM,55.4,51.8,88,30.18,10.0,Calm,Calm,-,N/A,,Mostly Cloudy,0,2011-10-09 19:33:00
3:13 PM,55.4,51.8,88,30.17,10.0,ENE,3.5,-,N/A,,Overcast,60,2011-10-09 20:13:00
3:33 PM,55.4,48.2,77,30.16,10.0,Calm,Calm,-,N/A,,Overcast,0,2011-10-09 20:33:00
3:53 PM,55.4,48.2,77,30.16,10.0,ENE,6.9,-,N/A,,Overcast,60,2011-10-09 20:53:00
4:13 PM,55.4,48.2,77,30.14,10.0,ENE,6.9,-,N/A,Rain,Light Rain,70,2011-10-09 21:13:00
4:33 PM,55.4,48.2,77,30.13,10.0,ENE,9.2,-,N/A,Rain,Light Rain,70,2011-10-09 21:33:00
4:53 PM,55.4,48.2,77,30.12,10.0,ENE,12.7,-,N/A,,Mostly Cloudy,70,2011-10-09 21:53:00
5:13 PM,57.2,48.2,72,30.11,10.0,ENE,8.1,17.3,N/A,,Mostly Cloudy,70,2011-10-09 22:13:00
5:33 PM,57.2,48.2,72,30.10,10.0,East,6.9,-,N/A,,Mostly Cloudy,80,2011-10-09 22:33:00
6:33 PM,55.4,48.2,77,30.09,10.0,East,9.2,-,N/A,,Overcast,90,2011-10-09 23:33:00
6:53 PM,55.4,48.2,77,30.09,10.0,East,3.5,-,N/A,,Mostly Cloudy,90,2011-10-09 23:53:00
7:53 PM,55.4,48.2,77,30.07,10.0,East,5.8,-,N/A,,Scattered Clouds,100,2011-10-10 00:53:00
8:13 PM,55.4,48.2,77,30.07,10.0,East,10.4,-,N/A,,Clear,100,2011-10-10 01:13:00
8:33 PM,55.4,48.2,77,30.06,10.0,East,6.9,-,N/A,,Scattered Clouds,100,2011-10-10 01:33:00
8:53 PM,55.4,48.2,77,30.05,10.0,ESE,8.1,-,N/A,,Scattered Clouds,110,2011-10-10 01:53:00
9:13 PM,55.4,50.0,82,30.05,10.0,ESE,10.4,17.3,N/A,,Scattered Clouds,110,2011-10-10 02:13:00
9:32 PM,55.4,50.0,82,30.04,10.0,ESE,11.5,16.1,N/A,,Scattered Clouds,110,2011-10-10 02:32:00
9:53 PM,55.4,51.8,88,30.04,10.0,ESE,9.2,18.4,N/A,,Mostly Cloudy,110,2011-10-10 02:53:00
10:13 PM,55.4,51.8,88,30.04,10.0,ESE,12.7,20.7,N/A,,Scattered Clouds,120,2011-10-10 03:13:00
10:33 PM,57.2,51.8,82,30.03,10.0,ESE,13.8,18.4,N/A,,Clear,120,2011-10-10 03:33:00
10:53 PM,55.4,51.8,88,30.03,10.0,ESE,13.8,21.9,N/A,,Clear,120,2011-10-10 03:53:00
11:13 PM,57.2,51.8,82,30.03,10.0,ESE,12.7,20.7,N/A,,Clear,120,2011-10-10 04:13:00
11:32 PM,55.4,51.8,88,30.03,10.0,ESE,12.7,19.6,N/A,,Scattered Clouds,120,2011-10-10 04:32:00
11:53 PM,55.4,51.8,88,30.02,10.0,ESE,11.5,19.6,N/A,,Scattered Clouds,120,2011-10-10 04:53:00